Powrót do katalogu

ATLAS 5 CENTAUR DEB

AktywnyHEO
NORAD 46847·DEBRIS·🇺🇸 United States

Wystrzelony Oct 17, 2018 z Cape Canaveral Space Force Station

Loading…

Następne Przeloty (najbliższe 24 godziny)

TLE

ŚwieżeSource: Space-Track

Epoka: Sep 7, 2026, 21:16 UTC

1 46847U 18079DC  26250.88613930 -.00000179  00000-0  00000-0 0  9995
2 46847  13.6582  35.1289 4694569 308.4773  17.9095  1.77277133 37907

Śledź ATLAS 5 CENTAUR DEB w czasie rzeczywistym z AllMySat

Download on the App Store